GW5466 Weather Reports


Display with metric or nautical units.
time (UTC)temp
F
wind
direction
speed
MPH
gust
MPH
rain 1hr
in
rain 24hr
in
rain mn
in
humidity
%
barometer
mb
20260505025202 69 266 2.0 3.0 0.00 0.00 0.00 66 1002.2
20260505024702 69 50 0.0 0.0 0.00 0.00 0.00 65 1002.5
20260505024202 69 55 0.0 0.0 0.00 0.00 0.00 65 1002.2
20260505023632 69 37 0.0 1.0 0.00 0.00 0.00 64 1002.1
20260505023132 69 22 0.0 0.0 0.00 0.00 0.00 64 1002.2
20260505022602 69 50 0.0 0.0 0.00 0.00 0.00 63 1002.2
20260505022102 69 44 0.0 0.0 0.00 0.00 0.00 63 1002.0
20260505021602 70 13 0.0 1.0 0.00 0.00 0.00 63 1001.7
20260505021102 70 55 0.0 1.0 0.00 0.00 0.00 62 1001.9
20260505021017 70 50 0.0 0.0 0.00 0.00 0.00 61 1001.7
20260505020032 71 44 0.0 0.0 0.00 0.00 0.00 61 1001.7
20260505015532 71 32 0.0 0.0 0.00 0.00 0.00 60 1001.7
20260505015032 72 242 0.0 0.0 0.00 0.00 0.00 59 1001.8
20260505014502 72 242 0.0 0.0 0.00 0.00 0.00 58 1001.5
20260505014224 72 242 0.0 0.0 0.00 0.00 0.00 57 1001.6
20260505013502 72 242 0.0 0.0 0.00 0.00 0.00 57 1001.3
20260505012932 73 242 0.0 0.0 0.00 0.00 0.00 56 1001.3
20260505012432 73 224 0.0 0.0 0.00 0.00 0.00 56 1001.4
20260505011932 74 24 0.0 0.0 0.00 0.00 0.00 56 1001.5
20260505011402 74 315 0.0 0.0 0.00 0.00 0.00 54 1001.4
20260505010902 75 315 0.0 0.0 0.00 0.00 0.00 53 1001.3
20260505010621 75 333 0.0 0.0 0.00 0.00 0.00 53 1001.2
20260505005902 76 25 0.0 0.0 0.00 0.00 0.00 52 1001.2
20260505005623 77 315 0.0 0.0 0.00 0.00 0.00 50 1001.2
20260505004902 77 315 0.0 0.0 0.00 0.00 0.00 49 1001.0
20260505004846 78 315 0.0 0.0 0.00 0.00 0.00 48 1001.0
20260505003902 78 315 0.0 0.0 0.00 0.00 0.00 47 1000.8
20260505003332 79 242 0.0 1.0 0.00 0.00 0.00 46 1001.0
20260505002832 79 172 0.0 1.0 0.00 0.00 0.00 46 1000.8
20260505002304 79 309 0.0 1.0 0.00 0.00 0.00 46 1000.7
20260505002024 80 310 0.0 1.0 0.00 0.00 0.00 46 1000.8
20260505001232 80 269 0.0 2.0 0.00 0.00 0.00 45 1000.7
20260505000732 80 251 1.0 1.0 0.00 0.00 0.00 45 1001.0
20260505000233 80 290 0.0 2.0 0.00 0.00 0.00 45 1001.0
20260504235923 80 224 1.0 3.0 0.00 0.00 0.00 44 1001.0
20260504235202 80 333 0.0 1.0 0.00 0.00 0.00 44 1001.0
20260504234921 80 240 0.0 2.0 0.00 0.00 0.00 44 1001.0
20260504234202 80 186 0.0 2.0 0.00 0.00 0.00 43 1000.8
20260504233632 80 252 0.0 4.0 0.00 0.00 0.00 43 1001.1
20260504233132 80 288 0.0 4.0 0.00 0.00 0.00 43 1001.1
20260504232602 80 295 0.0 3.0 0.00 0.00 0.00 42 1001.2
20260504232102 81 279 1.0 2.0 0.00 0.00 0.00 42 1000.9
20260504231602 81 230 2.0 4.0 0.00 0.00 0.00 41 1000.9
20260504231102 81 268 1.0 3.0 0.00 0.00 0.00 42 1001.1
20260504230532 81 269 2.0 3.0 0.00 0.00 0.00 41 1001.2
20260504230251 82 267 0.0 3.0 0.00 0.00 0.00 41 1001.2
20260504225532 82 304 2.0 2.0 0.00 0.00 0.00 41 1001.2
20260504225002 82 235 2.0 4.0 0.00 0.00 0.00 40 1001.1
20260504224721 81 316 0.0 3.0 0.00 0.00 0.00 40 1001.1
20260504224002 81 319 0.0 4.0 0.00 0.00 0.00 41 1001.3
20260504223502 81 250 0.0 3.0 0.00 0.00 0.00 40 1001.1
20260504222932 81 262 1.0 2.0 0.00 0.00 0.00 40 1001.1
20260504222402 81 313 0.0 2.0 0.00 0.00 0.00 41 1001.2
20260504221902 81 231 4.0 5.0 0.00 0.00 0.00 39 1001.2
20260504221332 81 286 3.0 3.0 0.00 0.00 0.00 41 1001.4
20260504220802 81 249 2.0 4.0 0.00 0.00 0.00 40 1001.4
20260504220522 81 276 2.0 3.0 0.00 0.00 0.00 41 1001.2
20260504215802 81 210 2.0 6.0 0.00 0.00 0.00 41 1001.4
20260504215304 81 258 1.0 5.0 0.00 0.00 0.00 43 1001.1
20260504214802 81 265 2.0 6.0 0.00 0.00 0.00 43 1001.7
20260504214748 81 250 2.0 2.0 0.00 0.00 0.00 43 1001.5
20260504213951 81 283 1.0 4.0 0.00 0.00 0.00 42 1001.8
20260504213232 81 249 4.0 4.0 0.00 0.00 0.00 42 1001.7
20260504212702 81 258 2.0 7.0 0.00 0.00 0.00 42 1001.9
20260504212202 81 252 1.0 5.0 0.00 0.00 0.00 42 1001.9
20260504211702 82 293 5.0 6.0 0.00 0.00 0.00 41 1001.8
20260504211202 82 261 2.0 3.0 0.00 0.00 0.00 42 1001.6
20260504210702 83 254 1.0 2.0 0.00 0.00 0.00 41 1001.7
20260504210202 83 223 0.0 5.0 0.00 0.00 0.00 41 1001.9
20260504205702 83 242 2.0 5.0 0.00 0.00 0.00 40 1001.9
20260504205132 83 276 1.0 3.0 0.00 0.00 0.00 42 1002.0
20260504204632 84 258 2.0 5.0 0.00 0.00 0.00 40 1001.8
20260504204102 84 276 1.0 5.0 0.00 0.00 0.00 39 1001.9
20260504203602 84 249 5.0 5.0 0.00 0.00 0.00 38 1001.9
20260504203321 84 263 2.0 4.0 0.00 0.00 0.00 39 1002.3
20260504202532 84 240 3.0 4.0 0.00 0.00 0.00 40 1002.2
20260504202032 84 285 3.0 5.0 0.00 0.00 0.00 39 1002.0
20260504201532 85 252 3.0 5.0 0.00 0.00 0.00 39 1002.2
20260504201032 84 283 2.0 4.0 0.00 0.00 0.00 41 1001.9
20260504201018 84 260 2.0 5.0 0.00 0.00 0.00 41 1002.3
20260504200032 83 237 4.0 4.0 0.00 0.00 0.00 41 1002.1
20260504195502 84 252 3.0 4.0 0.00 0.00 0.00 41 1002.2
20260504194932 84 262 2.0 6.0 0.00 0.00 0.00 38 1002.0
20260504194432 83 271 1.0 3.0 0.00 0.00 0.00 40 1002.0
20260504193902 83 225 4.0 4.0 0.00 0.00 0.00 39 1002.2
20260504193332 83 264 2.0 3.0 0.00 0.00 0.00 38 1002.4
20260504192832 83 286 4.0 4.0 0.00 0.00 0.00 40 1002.1
20260504192304 82 179 2.0 4.0 0.00 0.00 0.00 38 1002.5
20260504191803 82 295 0.0 4.0 0.00 0.00 0.00 41 1002.4
20260504191303 82 287 3.0 5.0 0.00 0.00 0.00 41 1002.4
20260504190803 82 230 3.0 5.0 0.00 0.00 0.00 41 1002.2
20260504190303 81 272 2.0 5.0 0.00 0.00 0.00 41 1002.4
20260504185803 81 297 0.0 5.0 0.00 0.00 0.00 43 1002.6
20260504185455 81 277 0.0 5.0 0.00 0.00 0.00 40 1002.7
20260504184232 80 233 0.0 6.0 0.00 0.00 0.00 42 1002.5
20260504184219 80 243 4.0 4.0 0.00 0.00 0.00 42 1002.6
20260504183202 80 277 3.0 5.0 0.00 0.00 0.00 40 1002.7
20260504182702 80 248 2.0 6.0 0.00 0.00 0.00 41 1002.9
20260504182132 80 216 0.0 3.0 0.00 0.00 0.00 45 1002.7
20260504181632 79 232 4.0 5.0 0.00 0.00 0.00 42 1003.2
20260504181132 79 257 3.0 4.0 0.00 0.00 0.00 43 1002.9
20260504180602 79 231 2.0 4.0 0.00 0.00 0.00 43 1003.0
20260504175750 79 254 2.0 3.0 0.00 0.00 0.00 43 1003.0
20260504175032 78 249 2.0 4.0 0.00 0.00 0.00 44 1003.1
20260504174502 79 249 3.0 5.0 0.00 0.00 0.00 42 1003.2
20260504174002 79 213 2.0 4.0 0.00 0.00 0.00 42 1003.1
20260504173722 78 286 1.0 5.0 0.00 0.00 0.00 42 1003.2
20260504173002 78 188 3.0 6.0 0.00 0.00 0.00 48 1003.4
20260504172432 78 274 2.0 5.0 0.00 0.00 0.00 43 1003.4
20260504171932 78 267 1.0 8.0 0.00 0.00 0.00 44 1003.5
20260504171432 78 257 2.0 4.0 0.00 0.00 0.00 43 1003.6
20260504160202 75 257 3.0 4.0 0.00 0.00 0.00 44 1003.4
20260504151032 72 242 3.0 7.0 0.00 0.00 0.00 47 1003.8
20260504150532 72 264 5.0 6.0 0.00 0.00 0.00 48 1003.9
20260504141232 67 222 3.0 4.0 0.00 0.00 0.00 54 1004.0
20260504140732 67 146 2.0 4.0 0.00 0.00 0.00 54 1004.2
20260504140232 67 327 0.0 2.0 0.00 0.00 0.00 54 1004.1
20260504130602 65 188 0.0 3.0 0.00 0.00 0.00 55 1003.8
20260504110702 64 314 2.0 4.0 0.00 0.00 0.00 53 1004.0
20260504110202 64 190 1.0 3.0 0.00 0.00 0.00 53 1004.0
20260504100602 66 257 1.0 2.0 0.00 0.00 0.00 50 1004.3
20260504081402 65 352 2.0 3.0 0.00 0.00 0.00 52 1004.7
20260504080833 65 62 0.0 1.0 0.00 0.00 0.00 52 1004.6
20260504080332 64 253 2.0 3.0 0.00 0.00 0.00 52 1004.7
20260504050502 65 250 0.0 2.0 0.00 0.00 0.00 49 1006.9
20260504050002 65 154 0.0 0.0 0.00 0.00 0.00 52 1006.8
20260504045432 64 7 1.0 1.0 0.00 0.00 0.00 54 1006.9
20260504044902 64 348 0.0 1.0 0.00 0.00 0.00 59 1006.9
20260504044402 64 142 0.0 0.0 0.00 0.00 0.00 57 1007.0
20260504043902 64 315 0.0 0.0 0.00 0.00 0.00 56 1006.9
20260504043403 65 37 0.0 1.0 0.00 0.00 0.00 55 1007.0
20260504042902 65 79 0.0 1.0 0.00 0.00 0.00 55 1006.9
20260504042332 65 37 0.0 1.0 0.00 0.00 0.00 55 1007.1
20260504041803 65 205 0.0 1.0 0.00 0.00 0.00 55 1006.8
20260504041233 65 52 2.0 2.0 0.00 0.00 0.00 56 1006.9
20260504040732 65 41 1.0 2.0 0.00 0.00 0.00 54 1006.7
20260504040232 65 25 0.0 1.0 0.00 0.00 0.00 54 1006.7
20260504035732 65 50 3.0 3.0 0.00 0.00 0.00 53 1006.3
20260504035232 65 44 0.0 2.0 0.00 0.00 0.00 53 1006.6
20260504034732 63 277 2.0 2.0 0.00 0.00 0.00 59 1006.7
20260504034202 63 322 0.0 2.0 0.00 0.00 0.00 61 1006.8
20260504033703 64 64 1.0 2.0 0.00 0.00 0.00 61 1007.0
20260504033132 64 47 0.0 2.0 0.00 0.00 0.00 60 1007.1
20260504032602 64 46 0.0 1.0 0.00 0.00 0.00 59 1006.9
20260504032325 64 55 0.0 0.0 0.00 0.00 0.00 59 1007.1
20260504031822 64 44 0.0 3.0 0.00 0.00 0.00 58 1007.3
20260504031102 64 44 0.0 0.0 0.00 0.00 0.00 59 1007.1
20260504030602 64 62 0.0 0.0 0.00 0.00 0.00 59 1007.0
20260504025602 65 44 0.0 0.0 0.00 0.00 0.00 59 1006.9